Regional Weather Roundup
Issued by NWS New Orleans/Baton Rouge, LA

Home | Current Version | Previous Version | Text Only | Print | Product List | Glossary On
Versions: 1 2 3 4 5 6 7 8 9 10 11 12 13 14 15 16 17 18 19 20 21 22 23 24 25 26 27 28 29 30 31 32 33 34 35 36 37 38 39 40 41 42 43 44 45 46 47 48 49 50
033
ASUS44 KLIX 290801
RWRLIX
NEW ORLEANS REGIONAL WEATHER ROUNDUP
NATIONAL WEATHER SERVICE NEW ORLEANS LA
200 AM CST THU JAN 29 2015

NOTE: "FAIR" INDICATES FEW OR NO CLOUDS BELOW 12,000 FEET WITH NO
      SIGNIFICANT WEATHER AND/OR OBSTRUCTIONS TO VISIBILITY.
      SKY/WX - SKY CONDITION AND SIGNIFICANT WEATHER.
      TMP - AIR TEMPERATURE.     DP    - DEWPOINT TEMPERATURE.
      RH  - RELATIVE HUMIDITY.   PRES  - PRESSURE.
      HI  - HEAT INDEX.          WCI   - WIND CHILL INDEX.

*  THESE STATIONS ARE NOT NWS OR FAA STATIONS AND ARE NOT UNDER
   NWS QUALITY CONTROL.

LAZ038-040-048-061>063-065>067-069-290900-
SOUTHEAST LOUISIANA

CITY           SKY/WX    TMP DP  RH WIND       PRES   REMARKS
N.O. AUDUBON   NOT AVBL
N.O. INTL ARPT PTCLDY    49  44  83 CALM      30.23S
N.O. LAKEFRONT CLEAR     52  48  86 CALM      30.24S
N.O. DOWNTOWN* NOT AVBL
SLIDELL        CLEAR     40  36  86 CALM      30.23S
BATON ROUGE    CLEAR     43  39  86 E3        30.22S
BOOTHVILLE     CLEAR     51  47  86 CALM      30.24R
BELLE CHASSE   CLEAR     43  39  86 CALM      30.22F
BOGALUSA*        N/A     40  37  89 CALM      30.25R
GALLIANO*      NOT AVBL
NEW ROADS*     NOT AVBL
GONZALES*      NOT AVBL
HAMMOND*       NOT AVBL
HOUMA*         FOG       43  43 100 CALM      30.22F VSB 1/4
PORT FOURCHON* SUNNY     63  55  77 SE3       30.26S

$$

MSZ070-080>082-290900-
SOUTHERN MISSISSIPPI

CITY           SKY/WX    TMP DP  RH WIND       PRES   REMARKS
MCCOMB         CLEAR     44  39  82 CALM      30.21F
GULFPORT       PTCLDY    41  39  93 CALM      30.25R
BILOXI         PTCLDY    46  46 100 CALM      30.25R
PASCAGOULA     MOCLDY    39  38  96 CALM      30.26R

$$

COASTAL OBSERVATIONS
LAKE AND NEARSHORE STATIONS

STATION/POSITION TIME  TEMP    WIND        PRES    WAVE
                       AIR SEA DIR/SP/G            HT/PER
                 (UTC) (F)     (DEG/KT/KT) (MB)    (FT/S)
PASCAGOULA       0723   56     140/  5/  6 1023.3
WAVELAND YACHT   0723   49     340/  3/  4 1023.1
GRAND ISLE       0723   62 64  160/  4/  7 1023.8
SOUTHWEST PASS   0723   59 46  150/  7/  9 1023.6
NEW CANAL        0723   52 54  350/  1/  1 1024.3
SHELL BEACH      0723   54 56  140/  2/  2 1023.7

OFFSHORE STATIONS

STATION/POSITION TIME  TEMP    WIND        PRES    WAVE
                       AIR SEA DIR/SP/G            HT/PER
                 (UTC) (F)     (DEG/KT/KT) (MB)    (FT/S)
64 S DAUPHIN ISL 0652   63 68  130/ 10/ 12 1024.3    2/ 5

$$




USA.gov is the U.S. government's official web portal to all federal, state and local government web resources and services.